Date String (YYYY-MM-DD hh:mm:ss) UTC,Instrument flags,Ambient pressure (hPa),Sample flow (lpm),Bypass flow (lpm),Sample temperature (°C),Ambient temperature (°C),ASC tube jacket temperature (°C),LED temperature (°C),Box temperature (°C),Sample RH (%),Span deviation,Mass concentration (μg/m³),Mass concentration (μg/m³),Mass concentration (μg/m³)
DateTimeUTC,F1_M11,P_M11,Q1_M11,Q2_M11,T1_M11,T2_M11,T3_M11,T4_M11,T5_M11,U1_M11,ZSPAN_M11,X0_M11,X2_M11,X1_M11
2022-07-16 18:00:00,,0829.9,4.99,0.00,29.3,27.2,00.0,37.9,31.1,34.5,0000.0,0011.96,0004.97,0004.37
2022-07-16 18:01:00,,0829.8,5.00,0.00,29.3,27.4,00.0,38.0,31.1,36.1,0000.0,0012.59,0005.04,0004.40
2022-07-16 18:02:00,,0829.8,5.01,0.00,29.6,27.6,00.0,38.0,31.3,35.8,0000.0,0012.79,0005.09,0004.45
2022-07-16 18:03:00,,0829.8,4.99,0.00,30.0,27.8,00.0,38.0,31.5,35.8,0000.0,0013.44,0005.14,0004.49
2022-07-16 18:04:00,,0829.9,5.00,0.00,30.4,28.0,00.0,38.1,31.7,34.4,0000.0,0013.58,0005.18,0004.54
2022-07-16 18:05:00,,0830.0,4.98,0.00,30.8,28.1,00.0,38.1,31.8,33.6,0000.0,0013.42,0005.24,0004.58
2022-07-16 18:06:00,,0830.0,5.01,0.00,30.9,27.6,00.0,38.1,31.8,33.4,0000.0,0013.58,0005.32,0004.64
2022-07-16 18:07:00,,0829.9,5.00,0.00,31.0,27.2,00.0,38.2,31.6,33.5,0000.0,0013.83,0005.39,0004.67
2022-07-16 18:08:00,,0829.9,5.01,0.00,31.0,27.2,00.0,38.3,31.5,32.6,0000.0,0012.95,0005.42,0004.68
2022-07-16 18:09:00,,0829.9,4.99,0.00,30.9,27.3,00.0,38.4,31.4,32.6,0000.0,0012.67,0005.43,0004.69
2022-07-16 18:10:00,,0829.9,5.00,0.00,30.9,27.4,00.0,38.5,31.4,33.0,0000.0,0012.30,0005.46,0004.70
2022-07-16 18:11:00,,0830.0,4.99,0.00,30.8,27.7,00.0,38.6,31.5,33.0,0000.0,0011.95,0005.53,0004.73
2022-07-16 18:12:00,,0830.1,5.00,0.00,30.8,27.9,00.0,38.7,31.5,32.9,0000.0,0011.60,0005.55,0004.74
2022-07-16 18:13:00,,0830.0,5.00,0.00,30.8,27.9,00.0,38.7,31.6,32.8,0000.0,0012.42,0005.54,0004.72
2022-07-16 18:14:00,,0830.1,5.00,0.00,30.8,27.5,00.0,38.7,31.6,32.8,0000.0,0012.51,0005.54,0004.72
2022-07-16 18:15:00,,0830.1,4.99,0.00,30.8,27.1,00.0,38.7,31.5,32.8,0000.0,0013.36,0005.56,0004.72
2022-07-16 18:16:00,,0830.1,5.00,0.00,30.7,27.1,00.0,38.7,31.4,33.0,0000.0,0013.84,0005.57,0004.72
2022-07-16 18:17:00,,0830.0,5.00,0.00,30.5,27.2,00.0,38.7,31.3,33.0,0000.0,0013.76,0005.56,0004.72
2022-07-16 18:18:00,,0829.9,5.00,0.00,30.5,27.3,00.0,38.7,31.3,33.0,0000.0,0014.02,0005.54,0004.72
2022-07-16 18:19:00,,0830.0,4.99,0.00,30.4,27.6,00.0,38.7,31.4,33.1,0000.0,0014.38,0005.54,0004.73
2022-07-16 18:20:00,,0830.1,5.01,0.00,30.4,27.8,00.0,38.8,31.5,32.9,0000.0,0014.79,0005.50,0004.71
2022-07-16 18:21:00,,0830.1,5.00,0.00,30.4,28.0,00.0,38.8,31.6,32.8,0000.0,0014.42,0005.46,0004.71
2022-07-16 18:22:00,,0830.1,4.99,0.00,30.4,27.8,00.0,38.7,31.6,32.6,0000.0,0014.83,0005.43,0004.69
2022-07-16 18:23:00,,0830.1,5.01,0.00,30.4,27.2,00.0,38.6,31.5,32.6,0000.0,0014.86,0005.39,0004.66
2022-07-16 18:24:00,,0830.1,4.99,0.00,30.3,27.0,00.0,38.6,31.4,32.8,0000.0,0014.47,0005.36,0004.64
2022-07-16 18:25:00,,0830.1,5.00,0.00,30.2,27.0,00.0,38.6,31.3,33.1,0000.0,0013.88,0005.33,0004.63
2022-07-16 18:26:00,,0830.1,5.00,0.00,30.1,27.2,00.0,38.6,31.2,33.0,0000.0,0012.56,0005.25,0004.58
2022-07-16 18:27:00,,0830.1,5.00,0.00,30.1,27.4,00.0,38.6,31.3,32.8,0000.0,0012.11,0005.19,0004.54
2022-07-16 18:28:00,,0830.1,5.01,0.00,30.1,27.6,00.0,38.6,31.3,32.2,0000.0,0012.08,0005.12,0004.49
2022-07-16 18:29:00,,0830.1,4.99,0.00,30.0,27.8,00.0,38.6,31.4,32.1,0000.0,0011.81,0005.05,0004.44
2022-07-16 18:30:00,,0830.1,5.00,0.00,30.1,28.0,00.0,38.6,31.5,32.1,0000.0,0011.02,0004.96,0004.38
2022-07-16 18:31:00,,0830.1,5.01,0.00,30.1,28.1,00.0,38.6,31.5,32.0,0000.0,0010.36,0004.93,0004.33
2022-07-16 18:32:00,,0830.1,4.98,0.00,30.1,27.7,00.0,38.5,31.5,32.2,0000.0,0010.43,0004.90,0004.28
2022-07-16 18:33:00,,0830.1,5.02,0.00,30.0,27.2,00.0,38.5,31.4,32.2,0000.0,0009.67,0004.86,0004.25
2022-07-16 18:34:00,,0830.1,5.00,0.00,30.0,27.1,00.0,38.5,31.4,31.7,0000.0,0009.69,0004.79,0004.21
2022-07-16 18:35:00,,0830.1,5.00,0.00,29.9,27.2,00.0,38.4,31.2,31.3,0000.0,0009.26,0004.74,0004.17
2022-07-16 18:36:00,,0830.1,5.00,0.00,29.8,27.3,00.0,38.4,31.2,29.7,0000.0,0009.12,0004.65,0004.09
2022-07-16 18:37:00,,0830.1,5.01,0.00,29.8,27.5,00.0,38.4,31.3,29.7,0000.0,0009.37,0004.58,0004.02
2022-07-16 18:38:00,,0830.1,5.01,0.00,29.8,27.7,00.0,38.4,31.3,29.9,0000.0,0009.52,0004.49,0003.96
2022-07-16 18:39:00,,0830.1,5.00,0.00,29.8,27.9,00.0,38.5,31.4,30.5,0000.0,0009.33,0004.41,0003.90
2022-07-16 18:40:00,,0830.1,5.01,0.00,29.9,28.0,00.0,38.4,31.5,30.8,0000.0,0008.92,0004.32,0003.85
2022-07-16 18:41:00,,0830.1,5.00,0.00,29.9,27.6,00.0,38.4,31.5,31.4,0000.0,0008.66,0004.27,0003.82
2022-07-16 18:42:00,,0830.0,5.00,0.00,29.8,27.2,00.0,38.3,31.4,31.8,0000.0,0009.09,0004.27,0003.81
2022-07-16 18:43:00,,0829.9,4.99,0.00,29.8,27.1,00.0,38.3,31.3,32.2,0000.0,0008.89,0004.23,0003.79
2022-07-16 18:44:00,,0829.9,5.01,0.00,29.7,27.1,00.0,38.3,31.2,32.7,0000.0,0008.86,0004.19,0003.76
2022-07-16 18:45:00,,0829.9,5.00,0.00,29.7,27.3,00.0,38.3,31.2,32.9,0000.0,0008.86,0004.16,0003.76
2022-07-16 18:46:00,,0829.9,5.02,0.00,29.6,27.5,00.0,38.3,31.2,32.7,0000.0,0008.80,0004.15,0003.76
2022-07-16 18:47:00,,0829.9,4.99,0.00,29.7,27.7,00.0,38.3,31.3,32.6,0000.0,0009.21,0004.22,0003.78
2022-07-16 18:48:00,,0829.8,5.00,0.00,29.7,27.9,00.0,38.3,31.3,32.4,0000.0,0008.95,0004.25,0003.83
2022-07-16 18:49:00,,0829.9,5.00,0.00,29.7,28.0,00.0,38.3,31.4,32.1,0000.0,0008.53,0004.28,0003.87
2022-07-16 18:50:00,,0829.8,4.99,0.00,29.7,27.7,00.0,38.3,31.4,32.6,0000.0,0008.55,0004.30,0003.90
2022-07-16 18:51:00,,0829.9,5.01,0.00,29.7,27.2,00.0,38.2,31.3,31.6,0000.0,0008.58,0004.32,0003.91
2022-07-16 18:52:00,,0829.9,5.00,0.00,29.6,27.0,00.0,38.2,31.2,30.8,0000.0,0008.49,0004.27,0003.88
2022-07-16 18:53:00,,0829.8,4.99,0.00,29.6,27.1,00.0,38.2,31.1,31.2,0000.0,0007.91,0004.20,0003.83
2022-07-16 18:54:00,,0829.9,5.01,0.00,29.5,27.3,00.0,38.2,31.1,31.5,0000.0,0008.13,0004.14,0003.79
2022-07-16 18:55:00,,0829.8,4.99,0.00,29.5,27.5,00.0,38.2,31.1,31.9,0000.0,0008.44,0004.10,0003.77
2022-07-16 18:56:00,,0829.9,5.01,0.00,29.5,27.7,00.0,38.2,31.2,31.6,0000.0,0008.03,0004.10,0003.74
2022-07-16 18:57:00,,0829.9,4.99,0.00,29.5,27.9,00.0,38.2,31.3,31.5,0000.0,0008.03,0004.06,0003.70
2022-07-16 18:58:00,,0829.8,5.00,0.00,29.6,28.1,00.0,38.2,31.3,31.0,0000.0,0007.59,0003.95,0003.66
2022-07-16 18:59:00,,0829.9,5.01,0.00,29.6,28.0,00.0,38.2,31.4,30.9,0000.0,0007.48,0003.90,0003.62
